Simultaneous Nadir Overpasses (SNOs) Predictions

Prediction of SNOs between GOES-14 and NOAA-20 Satellite Orbit:

Table of predicted SNOs for the next 14.0 days since TLE Epoch: 12/19/2020
Index Date Time (GOES-14) GOES-14 Lat,Lon NOAA-20 Lat,Lon Distance(km) Time Diff (sec)
1 12/19/2020 08:11:18 -0.06,-104.36 -0.57,-102.08 259.64 80
2 12/20/2020 20:33:15 0.07,-104.09 -0.64,-107.38 374.71 80
3 12/21/2020 20:17:10 0.07,-104.09 0.37,-102.85 142.33 80
4 12/23/2020 08:38:59 -0.08,-104.38 0.73,-108.14 427.93 80
5 12/24/2020 08:17:34 -0.07,-104.37 -0.22,-103.59 88.59 80
6 12/26/2020 20:20:46 0.07,-104.10 0.02,-104.36 29.65 80
7 12/27/2020 20:04:41 0.06,-104.10 1.04, -99.83 487.34 80
8 12/29/2020 08:26:30 -0.07,-104.38 0.12,-105.10 82.73 80
9 12/30/2020 08:05:05 -0.05,-104.38 -0.89,-100.57 433.52 80
10 12/31/2020 20:27:01 0.06,-104.09 -0.31,-105.87 202.51 80
11 01/01/2021 20:10:57 0.06,-104.09 0.70,-101.34 314.08 80
